Starlink 30567

operational
NORAD ID: 58067 Int'l Des: 2023-158 Owner: SPXS Country: US Constellation: starlink
LEOCIRCULAR

Starlink 30567について

説明を読み込み中...

リアルタイム位置

3D地球を読み込み中...

次回通過

高度履歴

Altitude vs Time

uPlot chart will show altitude changes over time

軌道要素

1 58067U 23158S 25308.49082316 -.00003497 00000-0 -24405-3 0 9999
2 58067 43.0047 351.0014 0001679 265.8909 94.1741 15.02512345114697
Epoch: Nov 4, 2025 • Age: 11 hours

現在のステータス

高度 571.3 km
速度 7.58 km/s
衛星直下点 -42.88°S, 116.45°W
打ち上げ日 Oct 13, 2023
運用期間 2 years
タイプ internet

技術仕様

分類 Payload
質量 730.00 kg
乾燥質量 700.00 kg
総質量 730.00 kg
長さ 0.30 m
直径 4.10 m
スパン 29.00 m
形状 Box + pan
製造者 SPXS
バスタイプ Starlink V2M
フェーズステータス In Orbit
所有者/国 SPXS/US

大規模コンステレーション

Loading constellations...